Regional Weather Roundup
Issued by NWS Wakefield, VA

Home | Current Version | Previous Version | Text Only | Print | Product List | Glossary On
Versions: 1 2 3 4 5 6 7 8 9 10 11 12 13 14 15 16 17 18 19 20 21 22 23 24 25 26 27 28 29 30 31 32 33 34 35 36 37 38 39 40 41 42 43 44 45 46 47 48 49 50
000
ASUS41 KAKQ 241110
RWRAKQ

REGIONAL WEATHER ROUNDUP
NATIONAL WEATHER SERVICE WAKEFIELD VA
700 AM EDT THU JUL 24 2014

Note: "fair" indicates few or no clouds below 12,000 feet with no
significant weather and/or obstructions to visibility. * = Denotes
station may not report precipitation (e.g., rain,snow,etc.),
thunder or fog.

VAZ042-051-052>054-056-241200-
NORTHERN VIRGINIA

CITY           SKY/WX    TMP DP  RH WIND       PRES   REMARKS
WASH NATIONAL  CLOUDY    76  66  71 N12       29.88S
DULLES         CLOUDY    72  66  83 N9        29.89S
FORT BELVOIR   CLOUDY    73  70  91 N5        29.88R
QUANTICO       CLOUDY    74  69  85 N6        29.88S
FREDERICKSBRG* CLOUDY    74  72  96 CALM      29.87S
STAFFORD*      CLOUDY    72  72 100 NW6       29.92S
WARRENTON      CLOUDY    73  73 100 N3        29.89R
CULPEPER*      LGT RAIN N/A N/A N/A CALM      29.90R
MANASSAS*      CLOUDY    72  70  94 N6        29.89R
LEESBURG*      CLOUDY    72  70  94 CALM      29.90S
WINCHESTER     CLOUDY    70  64  83 NW5       29.92S
$$

VAZ048-049-060>072-079>083-241200-
CENTRAL AND SOUTH CENTRAL VIRGINIA...AND NORTH CENTRAL NORTH CAROLINA

CITY           SKY/WX    TMP DP  RH WIND       PRES   REMARKS
RICHMOND       LGT RAIN  75  71  87 N6        29.87S FOG
CHESTERFIELD*  CLOUDY    73  63  68 CALM      29.90R
HANOVER        RAIN      73  71  93 CALM      29.90R FOG
TAPPAHANNOCK*  RAIN      74  70  87 CALM      29.87F
CHARLOTTSVILLE CLOUDY    71  69  93 CALM      29.90R
ORANGE*        CLOUDY    72  68  88 N3        29.91R
LOUISA*        LGT RAIN  72  70  94 CALM      29.89R
FARMVILLE*     RAIN      70  70 100 CALM      29.89S
SOUTH HILL*    MOCLDY    77  75  94 W5        29.94R
ROANOKE RAPIDS CLOUDY    72  70  94 CALM      29.88R
RALEIGH        MOCLDY    75  72  90 W3        29.91R
$$

VAZ088>098-241200-
SOUTHEAST VIRGINIA

CITY           SKY/WX    TMP DP  RH WIND       PRES   REMARKS
NORFOLK        PTCLDY    78  73  84 SW6       29.85R
VIRGINIA BEACH MOCLDY    77  74  90 SW8       29.84R
NORFOLK NAVAL  MOCLDY    79  74  84 SW6       29.86R
WEST POINT*    CLOUDY    76  72  85 NW5       29.87R
NEWPORT NEWS   PTCLDY    81  74  79 W6        29.85R
LANGLEY AFB    PTCLDY    78  77  98 SW7       29.84R
FORT EUSTIS    DRIZZLE   77  77 100 W8        29.84R
WILLIAMSBURG*  MOCLDY    79  73  83 NW9       29.87R
FRANKLIN*      PTCLDY    75  73  94 SW3       29.86S
WAKEFIELD      LGT RAIN  76  72  87 W3        29.86S FOG
$$

VAZ020-022-025-037-045-241200-
WESTERN AND SOUTHWEST VIRGINIA

CITY           SKY/WX    TMP DP  RH WIND       PRES   REMARKS
STAUNTON*      RAIN      69  68  95 CALM      29.95R
HOT SPRINGS VA CLOUDY    61  59  94 NW7       30.06S
LYNCHBURG      CLOUDY    69  68  96 CALM      29.94S
DANVILLE       CLOUDY    73  69  87 N7        29.92S
MARTINSVILLE   LGT RAIN  71  70  97 CALM      29.97R
ROANOKE        CLOUDY    72  64  78 CALM      29.96R
BLACKSBURG     CLOUDY    68  68 100 CALM        N/A
DUBLIN*        CLOUDY    69  67  92 CALM      30.00S
MARION*        DRIZZLE   68  68 100 W5        30.05R
HILLSVILLE*    LGT RAIN  67  65  93 W3        30.02S
RICHLANDS*     FOG       69  67  94 CALM      30.03S VSB<1/4
WISE*          FOG       64  64 100 CALM      30.04S VSB<1/4
ABINGDON*      CLOUDY    70  69  99 CALM      30.01S FOG
$$

MDZ021>025-VAZ099-100-241200-
SOUTHERN MARYLAND AND THE DELMARVA PENINSULA

CITY           SKY/WX    TMP DP  RH WIND       PRES   REMARKS
PATUXENT RIVER LGT RAIN  75  72  90 N8        29.85S FOG
BAY BRIDGE APT LGT RAIN  72  70  94 NE3       29.87S
LEONARDTOWN    CLOUDY    72  68  88 CALM      29.87F
DOVER          LGT RAIN  71  71 100 NW8       29.84F
GEORGETOWN     CLOUDY    73  70  90 VRB6      29.86R
EASTON         NOT AVBL
CAMBRIDGE      CLOUDY    73  70  88 N6        29.85S
SALISBURY      NOT AVBL
OCEAN CITY     CLOUDY    73  71  93 N3        29.84R FOG
WALLOPS ISLAND CLOUDY    76  72  87 N7        29.84S
ACCOMACK*        N/A     73  72  94 NW5       29.84S
$$

NCZ012>017-030>032-241200-
EASTERN NORTH CAROLINA

CITY           SKY/WX    TMP DP  RH WIND       PRES   REMARKS
ELIZABETH CITY PTCLDY    77  74  90 SW10      29.86S
AHOSKIE*       PTCLDY    75  73  93 CALM      29.88R
EDENTON*       PTCLDY    78  75  91 SW7       29.87S
CURRITUCK*     CLEAR     77  73  88 SW6       29.86S
KILL DEVIL HLS CLEAR     78  75  88 SW9G16    29.86S
MANTEO         NOT AVBL
CAPE HATTERAS  MOCLDY    79  76  90 W12       29.90S
GOLDSBORO      MOCLDY    76  76  99 SW6       29.89R
WASHINGTON     PTCLDY    75  73  93 SW6       29.89S
GREENVILLE     MOCLDY    77  73  88 SW7       29.90F FOG
NEW BERN       CLEAR     77  73  87 SW7       29.92S
WILMINGTON     PTCLDY    78  76  93 SW7       29.93S
$$

VAZ048-241200-
ELSEWHERE

CITY           SKY/WX    TMP DP  RH WIND       PRES   REMARKS
HARRISBURG PA  PTSUNNY   70  59  68 N7        29.90S
BALTIMORE      CLOUDY    72  67  84 N6        29.87F
ANNAPOLIS      CLOUDY    74  70  87 N6        29.87S
ANDREWS AFB    CLOUDY    72  69  90 NE8       29.87F
WILMINGTON DE  CLOUDY    71  67  87 N7        29.88R
PHILADELPHIA   CLOUDY    72  61  68 N12       29.87R
WILDWOOD NJ*   PTSUNNY   72  66  83 N7        29.86R
ATLANTIC CITY  PTSUNNY   71  68  90 NW10      29.84S
HENDERSON NC   PTCLDY    74  71  91 CALM      29.90S
GREENSBORO     MOCLDY    73  70  90 CALM      29.93R
ROCKY MOUNT    PTCLDY    76  74  93 SW5       29.88S
FAYETTEVILLE   PTCLDY    76  74  93 SW7       29.91R
CHARLOTTE      MOCLDY    73  70  90 CALM      29.93R
$$

VAZ100-241200-
MARINE

STATION/POSITION TIME  TEMP    WIND        PRES    WAVE   SWELL
                       AIR SEA DIR/SP/G            HT/PER HT/PER
                 (UTC) (F)     (DEG/KT/KT) (MB)    (FT/S) (FT/S)
44066 TX TWR #4  1100   74 74  320/ 14/ 17 1008.6R   3/ 5   2/ 9
CAPE MAY NJ      1000   73 78   10/  4/  8 1010.2R
LEWES DE         1000   74 72  320/  8/  9 1010.2R
15NM E FENWICK I 1100   74 76              1010.2R   2/ 5
OCEAN-CITY-INLET 1000   73 71  360/  5/  6 1009.9R
WACHAPREAGUE VA  1000   76 83  280/  1/  2 1010.1R
THOMAS POINT MD  1000   75 80   10/  9/ 11 1011.9R
GOOSES REEF MD   1100   76      50/ 14/ 16 1011.3F
COVE POINT MD    1000   76      20/ 16/ 18 1010.9R
SOLOMONS ISLAND  1000      82                N/A
BISHOPS HEAD MD  1000   76 81  340/  8/ 10 1010.3R
PINEY POINT MD   1000           10/ 10/ 11   N/A
POTOMAC MD       1100   77     360/  8/ 10 1010.4R
CAMBRIDGE MD     1000   74 80  350/ 10/ 13 1010.8R
LEWISETTA VA     1000   77 81  360/  8/ 13 1010.8R
RAPPAHANNOCK LGT 1000          320/ 12/ 13 1010.9R
STINGRAY PT      1100   78     360/ 10/ 12 1011.1F
YORK RVR RNG VA  1000   79     320/  8/  8 1009.7R
YORKTOWN VA      1000   78 80  260/  6/  7 1010.2R
JAMESTOWN VA     1100   78     330/ 10/ 14   N/A
DOMINION TERM VA 1000   78     270/ 10/ 12 1010.6R
KIPTOPEKE VA     1000      82  290/ 12/ 14   N/A
CHES BAY BRIDGE  1000   78 79  230/ 12/ 13 1009.8R
CAPE HENRY VA    1000   78     240/  7/ 10 1009.2R
WILLOUBY STN VA  1000          260/ 12/ 13 1009.7R
S CRANEY ISL VA  1000          230/  5/  7 1010.6R
CAPE HENRY BUOY  1000      77                N/A     3/ 6
1ST LANDING BUOY 1100   79     260/ 12/ 14 1010.2R
CAPE CHARLES BUO 1100      74                N/A     2/ 6
OFFSHORE WE BUOY 1000      78                N/A     3/ 6
64NM E OF VA BCH 1100   78 78  230/ 14/ 16 1010.2R   4/ 6   2/ 7
DUCK PIER NC     1000   78 72  230/ 12/ 17 1010.3F
44056 DUCK FRF   1000                        N/A     2/10
OREGON INLET NC  1000   79 82  230/ 14/ 17 1011.5S
HATTERAS NC      1000   78 82  240/  8/ 13 1012.8S
DIAMOND SHLS NC  1100          VRB 17/ 19  1012.3R   5/ 5   2/ 8
CAPE LOOKOUT NC  1000   80     250/ 11/ 15 1012.9F
$$



USA.gov is the U.S. government's official web portal to all federal, state and local government web resources and services.